Date,TemperatureHighF,TemperatureAvgF,TemperatureLowF,DewpointHighF,DewpointAvgF,DewpointLowF,HumidityHigh,HumidityAvg,HumidityLow,PressureMaxIn,PressureMinIn,WindSpeedMaxMPH,WindSpeedAvgMPH,GustSpeedMaxMPH,PrecipitationSumIn
2013-10-1,74.6,64.6,58.3,63.9,60.9,57.6,99,89,68,30.06,29.98,8,4,16,0.01
2013-10-2,79.9,67.4,59.8,69.2,64.2,59.2,99,90,66,30.10,30.01,6,2,10,0.00
2013-10-3,80.6,70.9,64.0,69.2,65.7,62.9,98,85,59,30.04,29.92,9,3,16,0.06
2013-10-4,85.5,73.4,66.2,70.9,67.3,64.7,95,82,59,30.03,29.95,9,4,16,0.01
2013-10-5,79.8,70.2,66.2,71.5,67.4,64.3,98,91,69,30.00,29.84,10,4,17,0.23
2013-10-6,66.1,59.7,47.2,64.5,56.4,40.8,97,90,69,29.88,29.71,11,5,20,0.77
2013-10-7,62.2,50.2,43.6,49.1,44.2,40.3,94,81,53,30.16,29.81,13,5,18,0.01
2013-10-8,72.0,55.8,44.9,52.2,47.1,43.6,96,76,44,30.28,30.17,7,2,9,0.00
2013-10-9,72.8,57.1,43.6,50.9,46.4,41.9,95,70,42,30.29,30.17,6,1,12,0.00
2013-10-10,74.3,58.0,43.2,53.4,47.6,42.4,98,73,37,30.22,30.10,4,1,8,0.00
2013-10-11,77.7,60.2,45.1,54.2,48.7,43.6,96,70,35,30.14,30.03,4,1,9,0.00
2013-10-12,79.9,63.9,49.5,60.3,53.6,48.1,96,73,38,30.12,30.02,7,2,12,0.00
2013-10-13,67.9,59.3,46.9,61.1,46.9,40.1,88,66,39,30.38,30.12,9,5,16,0.00
2013-10-14,67.3,52.4,39.8,51.4,44.0,38.5,96,76,43,30.40,30.23,6,3,13,0.00
2013-10-15,65.3,56.9,47.3,61.3,53.9,44.8,96,90,83,30.24,29.89,10,4,15,0.01
2013-10-16,62.8,53.7,45.4,61.0,47.3,41.8,94,79,64,30.00,29.89,11,6,19,0.00
2013-10-17,50.6,45.8,41.2,47.5,43.4,39.8,97,91,81,29.98,29.88,13,4,17,0.18
2013-10-18,63.2,48.8,41.1,48.6,42.3,38.9,94,80,49,30.01,29.92,11,4,17,0.01
2013-10-19,51.7,44.0,39.1,41.5,38.0,34.6,95,81,53,29.99,29.87,12,4,18,0.23
2013-10-20,63.6,50.9,39.7,44.6,40.2,35.5,86,68,48,29.99,29.90,12,6,21,0.00
2013-10-21,54.9,48.3,38.2,46.9,41.3,28.8,89,77,65,30.01,29.91,10,6,21,0.00
2013-10-22,47.4,36.7,28.7,35.3,29.6,24.9,95,77,47,30.06,29.93,7,4,11,0.13
2013-10-23,44.9,38.0,33.0,37.3,32.7,27.9,97,83,56,30.07,29.88,13,5,21,0.07
2013-10-24,42.2,37.3,33.2,33.0,29.5,24.4,89,74,57,30.31,30.06,12,5,18,0.00
2013-10-25,47.2,36.9,27.5,31.4,27.5,24.7,89,70,46,30.47,30.25,12,5,17,0.00
2013-10-26,55.9,43.2,35.3,39.9,32.1,26.8,75,65,47,30.25,29.91,16,8,27,0.00
2013-10-27,54.4,41.3,28.8,34.8,31.2,26.9,94,70,41,30.14,30.06,8,2,14,0.00
2013-10-28,59.4,43.4,29.5,38.4,32.5,27.4,94,69,37,30.36,30.11,5,1,9,0.00
2013-10-29,54.9,45.0,35.0,43.0,39.1,33.3,94,80,61,30.42,30.23,4,2,10,0.00
2013-10-30,63.0,54.4,45.3,62.1,51.4,42.8,98,90,77,30.23,29.94,9,3,13,0.08
2013-10-31,63.0,60.2,53.5,62.0,58.9,51.6,97,95,91,29.94,29.26,14,9,24,1.27